[[{"header":{"parameterUnit":"m.s-1","parameterCategory":1,"la1":30.2991,"la2":30.254,"lo1":-89.0895,"lo2":-89.0444,"dy":0.0017,"dx":0.0017,"nx":28,"ny":28,"refTime":"2026-02-09T09:00:00:Z","depth":0,"parameterNumber":2,"parameterNumberName":"U-component_of_WINDS"},"data":[0,0,0,0,0,0,0,0,0,0,0,0,0,0,0,0,0,0,0,0,0,0,0,0,0,0,0,0,0,0,0,0,0,0,0,0,0,0,0,0,0,0,0,0,0,0,0,0,0,0,0,0,0,0,0,0,0,0,-0.918,-0.9178,0,-0.9017,-0.9015,-0.9014,-0.8895,-0.8894,-0.8893,-0.8892,-0.8722,-0.8718,-0.8714,0,0,0,0,0,0,0,0,0,0,0,0,0,-0.9384,-0.9381,-0.918,-0.9178,-0.9176,-0.9018,-0.9015,-0.9013,-0.8895,-0.8894,-0.8893,-0.8892,-0.8723,-0.8719,-0.8714,0,0,0,0,0,0,0,0,0,0,0,0,0,-0.9266,-0.938,-0.9181,-0.9098,-0.9089,-0.9018,-0.9015,-0.9012,-0.8896,-0.8894,-0.8893,-0.8891,-0.8724,-0.8719,-0.8714,-0.871,0,0,-0.8697,-0.8695,0,0,0,0,0,0,0,0,-0.9273,-0.9258,-0.9112,-0.9104,-0.9094,-0.8975,-0.9024,-0.8911,-0.8896,-0.8969,-0.8892,-0.889,-0.8807,-0.8795,-0.8767,-0.8702,-0.8694,-0.8696,-0.8693,-0.8691,-0.8689,0,0,0,0,0,0,0,-0.9281,-0.9265,-0.9116,-0.911,-0.9099,-0.9068,-0.9049,-0.9002,-0.8898,-0.8963,-0.8954,-0.8936,-0.8801,-0.8773,-0.8762,-0.8692,-0.8697,-0.8692,-0.8688,-0.8686,-0.8612,-0.8613,0,0,0,0,0,0,-0.9303,-0.9272,-0.9121,-0.9111,-0.9181,-0.9066,-0.9045,-0.9015,-0.8898,-0.8879,-0.8938,-0.8931,-0.8783,-0.8769,-0.8756,-0.8741,-0.8691,-0.8686,-0.8683,-0.8611,-0.8612,-0.8614,0,0,0,0,0,0,-0.9308,-0.929,-0.9127,-0.9189,-0.9166,-0.9064,-0.9031,-0.9012,-0.8983,-0.888,-0.886,-0.8928,-0.8781,-0.8763,-0.8722,-0.8734,-0.8683,-0.8678,-0.8609,-0.8611,-0.8613,-0.8714,0,0,0,0,0,0,-0.9314,-0.9293,-0.9292,-0.919,-0.9163,-0.9098,-0.9031,-0.901,-0.8975,-0.8965,-0.8865,-0.8847,-0.8778,-0.873,-0.8716,-0.8725,-0.8674,-0.8608,-0.861,-0.8612,-0.8709,-0.8719,-0.8728,0,0,0,0,0,-0.9322,-0.9326,-0.9292,-0.9274,-0.916,-0.9099,-0.9083,-0.9005,-0.8976,-0.8973,-0.8906,-0.885,-0.8736,-0.8727,-0.871,-0.8718,-0.8606,-0.8609,-0.8612,-0.8705,-0.8717,-0.8728,0,0,0,0,0,0,-0.9431,-0.9312,-0.9272,-0.9245,-0.9183,-0.9079,-0.9073,-0.9021,-0.8965,-0.8958,-0.8863,-0.8841,-0.8809,-0.8759,-0.8752,-0.8707,-0.8664,-0.8663,-0.874,-0.8751,-0.876,-0.8772,-0.867,0,0,0,0,0,-0.9452,-0.9414,-0.9311,-0.9297,-0.9268,-0.9176,-0.9147,-0.9092,-0.9023,-0.8996,-0.8926,-0.8861,-0.8809,-0.8778,-0.8725,-0.8702,-0.8677,-0.8699,-0.8708,-0.8716,-0.8716,-0.8698,-0.8705,-0.8623,-0.8623,-0.8623,0,0,-0.9495,-0.9425,-0.9407,-0.9317,-0.9262,-0.9223,-0.9155,-0.9117,-0.9086,-0.899,-0.8946,-0.8893,-0.8813,-0.878,-0.8762,-0.8737,-0.8734,-0.872,-0.8727,-0.8723,-0.8701,-0.8709,-0.8716,-0.8625,-0.8625,-0.8624,0,0,-0.9552,-0.9497,-0.9477,-0.9424,-0.9343,-0.9282,-0.9278,-0.9181,-0.9142,-0.9097,-0.9023,-0.8985,-0.8899,-0.8845,-0.8806,-0.8842,-0.8787,-0.8827,-0.8875,-0.8858,-0.8865,-0.887,-0.888,-0.8885,-0.8828,-0.8829,-0.8829,0,-0.9615,-0.9555,-0.9474,-0.9439,-0.9401,-0.9314,-0.9292,-0.9244,-0.9149,-0.9124,-0.9099,-0.8988,-0.8929,-0.888,-0.8889,-0.8862,-0.8851,-0.8837,-0.8871,-0.8875,-0.8879,-0.8887,-0.8891,-0.8834,-0.8833,-0.8833,-0.8832,0,-0.9635,-0.9594,-0.9588,-0.9499,-0.946,-0.9432,-0.9345,-0.9315,-0.9264,-0.9205,-0.9158,-0.9084,-0.9014,-0.8998,-0.8948,-0.8942,-0.8929,-0.8889,-0.8843,-0.8893,-0.8899,-0.8902,-0.8841,-0.8839,-0.8838,-0.8837,0,0,-0.9756,-0.9623,-0.9622,-0.9579,-0.9483,-0.9449,-0.9416,-0.9348,-0.9323,-0.9261,-0.9229,-0.9159,-0.912,-0.9076,-0.9019,-0.9004,-0.9034,-0.8964,-0.8961,-0.8978,-0.902,-0.9049,-0.9054,-0.8998,-0.8998,-0.8999,-0.9025,0,-0.9797,-0.9734,-0.966,-0.9622,-0.9582,-0.9498,-0.9469,-0.9406,-0.935,-0.9306,-0.9243,-0.9193,-0.9148,-0.912,-0.9102,-0.9034,-0.904,-0.9032,-0.8965,-0.8964,-0.8985,-0.9058,-0.9089,-0.9118,-0.9028,-0.9028,-0.9028,0,-0.9836,-0.9778,-0.9737,-0.9642,-0.9622,-0.9598,-0.9528,-0.9488,-0.9414,-0.9374,-0.9325,-0.9263,-0.9222,-0.9184,-0.9124,-0.912,-0.9088,-0.9051,-0.905,-0.9039,-0.8998,-0.9046,-0.9126,-0.9129,-0.9032,-0.9032,-0.9031,0,-0.9925,-0.9837,-0.98,-0.9767,-0.9656,-0.9641,-0.9594,-0.9518,-0.9481,-0.942,-0.9395,-0.933,-0.9294,-0.9245,-0.9166,-0.9146,-0.9114,-0.907,-0.9077,-0.9079,-0.9073,-0.9074,-0.9146,-0.9057,-0.9057,-0.9057,-0.9057,0,-0.9976,-0.9954,-0.9838,-0.9816,-0.9787,-0.9701,-0.9674,-0.962,-0.9553,-0.9516,-0.944,-0.9407,-0.9307,-0.9262,-0.92,-0.9159,-0.9144,-0.9108,-0.9092,-0.9114,-0.9118,-0.909,-0.9085,-0.9058,-0.9058,-0.9058,-0.9058,0,-1.0071,-0.9993,-0.9947,-0.9846,-0.982,-0.9803,-0.9715,-0.9689,-0.9629,-0.9583,-0.9567,-0.9472,-0.9414,-0.9332,-0.9249,-0.9208,-0.9174,-0.9149,-0.92,-0.9189,-0.9201,-0.92,-0.9255,-0.9257,-0.9171,-0.9172,-0.9173,0,-1.0108,-1.0088,-0.9985,-0.9956,-0.9911,-0.9865,-0.9827,-0.9741,-0.9705,-0.9618,-0.9601,-0.9538,-0.9483,-0.9394,-0.9316,-0.9252,-0.9223,-0.9247,-0.9213,-0.9235,-0.922,-0.9221,-0.9218,-0.9255,-0.9256,-0.9257,-0.9258,0,-1.0181,-1.0143,-1.0092,-1.0027,-0.9984,-0.9928,-0.9869,-0.9849,-0.975,-0.9712,-0.9653,-0.961,-0.9526,-0.9463,-0.9388,-0.9337,-0.928,-0.927,-0.9267,-0.9289,-0.9317,-0.9299,-0.9219,-0.9268,-0.9267,-0.9267,-0.9266,-0.9266,-1.0245,-1.0223,-1.0147,-1.0092,-1.0038,-0.9984,-0.9954,-0.989,-0.9839,-0.9764,-0.9716,-0.9658,-0.9582,-0.9476,-0.9428,-0.938,-0.9357,-0.9355,-0.9353,-0.9354,-0.936,-0.9328,-0.9367,-0.9366,-0.9366,-0.9365,-0.9365,0,-1.0312,-1.0259,-1.0209,-1.0128,-1.0085,-1.0037,-0.9968,-0.9934,-0.9885,-0.9819,-0.9767,-0.9697,-0.9635,-0.9553,-0.9485,-0.9462,-0.9434,-0.9447,-0.9446,-0.9435,-0.9386,-0.9394,-0.9471,-0.9471,-0.9471,-0.9471,-0.9471,-0.9471,-1.0341,-1.03,-1.0254,-1.0185,-1.0131,-1.0074,-1.0039,-0.9988,-0.9935,-0.9861,-0.981,-0.9757,-0.9683,-0.9609,-0.955,-0.9527,-0.9504,-0.9525,-0.9493,-0.9449,-0.9439,-0.943,-0.9436,-0.9521,-0.9521,-0.9546,-0.9546,-0.9546]},{"header":{"parameterUnit":"m.s-1","parameterCategory":1,"la1":30.2991,"la2":30.254,"lo1":-89.0895,"lo2":-89.0444,"dy":0.0017,"dx":0.0017,"nx":28,"ny":28,"refTime":"2026-02-09T09:00:00:Z","depth":0,"parameterNumber":3,"parameterNumberName":"V-component_of_WINDS"},"data":[0,0,0,0,0,0,0,0,0,0,0,0,0,0,0,0,0,0,0,0,0,0,0,0,0,0,0,0,0,0,0,0,0,0,0,0,0,0,0,0,0,0,0,0,0,0,0,0,0,0,0,0,0,0,0,0,0,0,1.8851,1.885,0,1.8775,1.8774,1.8773,1.8814,1.8816,1.8818,1.882,1.8736,1.8732,1.8727,0,0,0,0,0,0,0,0,0,0,0,0,0,1.9028,1.9025,1.8851,1.885,1.8849,1.8775,1.8774,1.8773,1.8813,1.8816,1.8818,1.8821,1.8737,1.8732,1.8727,0,0,0,0,0,0,0,0,0,0,0,0,0,1.8951,1.9024,1.8851,1.8861,1.8861,1.8775,1.8774,1.8773,1.8813,1.8816,1.8819,1.8822,1.8739,1.8733,1.8726,1.8625,0,0,1.8707,1.8705,0,0,0,0,0,0,0,0,1.8956,1.8945,1.886,1.886,1.886,1.8807,1.8806,1.8723,1.8812,1.8831,1.882,1.8823,1.8756,1.8749,1.8728,1.8622,1.8618,1.8707,1.8703,1.87,1.8698,0,0,0,0,0,0,0,1.8961,1.8948,1.8821,1.8859,1.8859,1.8867,1.886,1.879,1.8777,1.8829,1.8832,1.8823,1.8757,1.8734,1.8726,1.8617,1.8707,1.8701,1.8697,1.8695,1.8426,1.8423,0,0,0,0,0,0,1.8966,1.8953,1.8823,1.8818,1.8917,1.8862,1.8853,1.8821,1.8778,1.8774,1.882,1.8825,1.8743,1.8733,1.8723,1.8603,1.87,1.8694,1.8691,1.843,1.8426,1.8422,0,0,0,0,0,0,1.897,1.8955,1.8826,1.8886,1.8871,1.8855,1.8818,1.8818,1.8794,1.8771,1.8768,1.8799,1.8745,1.8732,1.865,1.8601,1.8692,1.8686,1.8434,1.8428,1.8424,1.8362,0,0,0,0,0,0,1.8975,1.8956,1.8918,1.8885,1.8867,1.8755,1.8815,1.8814,1.8784,1.879,1.875,1.8747,1.8746,1.866,1.8644,1.8594,1.8681,1.8438,1.8431,1.8425,1.8368,1.8355,1.8344,0,0,0,0,0,1.8981,1.8901,1.8915,1.89,1.882,1.8753,1.8742,1.8745,1.878,1.8741,1.8727,1.8748,1.8609,1.8651,1.8634,1.8581,1.8441,1.8433,1.8426,1.8374,1.8358,1.8345,0,0,0,0,0,0,1.8925,1.8897,1.8912,1.882,1.8789,1.876,1.8711,1.8728,1.8684,1.8691,1.8694,1.8685,1.8601,1.8583,1.863,1.8482,1.853,1.8519,1.8497,1.8481,1.847,1.8475,1.8676,0,0,0,0,0,1.8903,1.8852,1.883,1.875,1.8734,1.8725,1.8696,1.8701,1.8668,1.8654,1.8634,1.8599,1.8548,1.8514,1.8465,1.8367,1.8359,1.8322,1.831,1.8301,1.829,1.8238,1.8221,1.8397,1.8397,1.8397,0,0,1.8855,1.8833,1.88,1.8739,1.8715,1.8662,1.8713,1.8654,1.8614,1.8644,1.8567,1.8551,1.8513,1.8423,1.8382,1.8405,1.8241,1.8291,1.8283,1.8278,1.8228,1.8212,1.8197,1.8392,1.8393,1.8393,0,0,1.874,1.8718,1.8651,1.8627,1.8592,1.8587,1.8571,1.854,1.8531,1.8454,1.8476,1.8429,1.834,1.8313,1.8287,1.8166,1.8184,1.815,1.8086,1.8035,1.8022,1.8009,1.7966,1.7951,1.814,1.814,1.8139,0,1.8683,1.8605,1.8613,1.8553,1.8526,1.8554,1.8486,1.8461,1.8411,1.8391,1.8419,1.831,1.8286,1.8191,1.8162,1.814,1.8122,1.8153,1.8023,1.8011,1.8,1.7959,1.7942,1.8136,1.8136,1.8137,1.8137,0,1.8538,1.8484,1.8433,1.8387,1.8354,1.829,1.8288,1.8253,1.8262,1.8254,1.8176,1.8149,1.8097,1.8075,1.8082,1.7981,1.7997,1.8024,1.8072,1.7979,1.794,1.7925,1.813,1.8132,1.8133,1.8134,0,0,1.8383,1.8345,1.8326,1.8307,1.8272,1.8229,1.8167,1.8118,1.8088,1.8053,1.8001,1.7927,1.7953,1.7924,1.7929,1.7884,1.779,1.7917,1.7916,1.7894,1.7678,1.7658,1.7639,1.7803,1.78,1.7798,1.7682,0,1.8266,1.8158,1.8165,1.8064,1.8014,1.8042,1.7988,1.796,1.7952,1.7907,1.7898,1.7846,1.7884,1.7867,1.7824,1.7811,1.7747,1.782,1.7753,1.7751,1.7761,1.7619,1.7596,1.7488,1.7666,1.7664,1.7662,0,1.8114,1.8077,1.7971,1.7946,1.7925,1.7877,1.7834,1.7791,1.7761,1.7758,1.7728,1.774,1.7677,1.7728,1.7641,1.769,1.7664,1.7654,1.765,1.7642,1.77,1.7607,1.7453,1.7436,1.7638,1.764,1.7642,0,1.8011,1.7935,1.7863,1.7845,1.7813,1.7779,1.7764,1.7737,1.7708,1.767,1.7651,1.7606,1.758,1.7544,1.7545,1.7582,1.7456,1.7508,1.7451,1.7451,1.7422,1.7423,1.726,1.7406,1.7407,1.7407,1.7407,0,1.7879,1.7813,1.7817,1.7772,1.7699,1.7708,1.7636,1.7624,1.7601,1.7554,1.7575,1.753,1.7533,1.7488,1.7487,1.7415,1.7404,1.7399,1.74,1.7397,1.7397,1.7378,1.7385,1.7403,1.7404,1.7404,1.7405,0,1.7751,1.7751,1.7674,1.7652,1.7645,1.7593,1.7573,1.7531,1.7526,1.7466,1.7453,1.7444,1.7392,1.739,1.7328,1.7328,1.7241,1.725,1.7252,1.7253,1.7197,1.7202,1.7015,1.6991,1.7153,1.7152,1.7151,0,1.7666,1.7617,1.7591,1.7562,1.7546,1.7499,1.7471,1.7478,1.7448,1.7411,1.7372,1.7323,1.7284,1.7199,1.7187,1.7141,1.7149,1.7087,1.7142,1.7141,1.7147,1.715,1.7145,1.7075,1.7073,1.7072,1.7071,0,1.7516,1.7519,1.7479,1.7438,1.7405,1.7372,1.7343,1.7318,1.7322,1.7286,1.7235,1.7205,1.7145,1.7095,1.7051,1.7035,1.7053,1.7054,1.7039,1.7034,1.7037,1.7035,1.7222,1.7058,1.7059,1.706,1.7061,1.7061,1.7407,1.7365,1.7341,1.7295,1.7275,1.7247,1.7207,1.7199,1.7156,1.711,1.7117,1.7059,1.7032,1.6975,1.6955,1.691,1.6931,1.6908,1.6903,1.6897,1.6891,1.7046,1.6902,1.6902,1.6903,1.6903,1.6903,0,1.7257,1.7245,1.7203,1.7162,1.7127,1.715,1.7119,1.7087,1.7038,1.7011,1.6974,1.6915,1.6868,1.6853,1.6808,1.6775,1.6782,1.6762,1.6764,1.676,1.6874,1.6892,1.6757,1.6757,1.6757,1.6757,1.6757,1.6757,1.7176,1.7107,1.7107,1.7029,1.7016,1.6962,1.6942,1.6917,1.6896,1.6831,1.6793,1.6785,1.6763,1.6717,1.6675,1.6672,1.6654,1.663,1.663,1.6737,1.6752,1.6766,1.6783,1.6627,1.6626,1.652,1.6519,1.6518]}]]